Shirley, NY

12:42 PM EST on November 18, 2017 (GMT -0500)
Brookhaven

Weather History for KHWV - June, 2014

Change the Weather History Date:

Friday, June 6, 2014

  Actual Average (KISP) Record (KISP)
Temperature  
Mean Temperature 65 °F -  
Max Temperature 75 °F 71 °F 89 °F (1968)
Min Temperature 55 °F 53 °F 43 °F (1964)
Growing Degree Days 15 (Base 50)    
Moisture  
Dew Point 52 °F    
Average Humidity 64    
Maximum Humidity 87    
Minimum Humidity 43    
Precipitation  
Precipitation 0.00 in - - ()
Sea Level Pressure  
Sea Level Pressure 29.85 in    
Wind  
Wind Speed 8 mph (NW)    
Max Wind Speed 16 mph    
Max Gust Speed 25 mph    
Visibility 10 miles    
Events      
Averages and records for this station are not official NWS values.
T = Trace of Precipitation, MM = Missing Value Source: NWS Daily Summary

Daily Weather History Graph

Daily Weather History Graph

Search for Another Location

Airport or City:

Trip Planner

Search our weather history database for the weather conditions in past years. The results will help you decide how hot, cold, wet, or windy it might be!

Date:

Astronomy

Jun. 06, 2014 Rise Set
Actual Time 5:20 AM EDT 8:20 PM EDT
Civil Twilight 4:47 AM EDT 8:53 PM EDT
Nautical Twilight 4:05 AM EDT 9:35 PM EDT
Astronomical Twilight 3:16 AM EDT 10:24 PM EDT
Moon 1:34 PM EDT (6/6) 1:13 AM EDT (6/6)
Length of Visible Light 16h 05m
Length of Day
14h 59m
First Quarter, 58% of the Moon is Illuminated
Jun 6
First Quarter
Jun 13
Full
Jun 19
Last Quarter
Jun 27
New
Jul 5
First Quarter

Hourly Weather History & Observations

Time (EDT) Temp. Dew Point Humidity Pressure Visibility Wind Dir Wind Speed Gust Speed Precip Events Conditions
12:56 AM 61.0 °F 57.0 °F 87% 29.78 in 10.0 mi NW 6.9 mph - N/A   Scattered Clouds
1:56 AM 60.1 °F 55.0 °F 83% 29.77 in 10.0 mi WNW 5.8 mph - N/A   Mostly Cloudy
2:56 AM 60.1 °F 54.0 °F 80% 29.78 in 10.0 mi WNW 6.9 mph - N/A   Overcast
3:56 AM 57.0 °F 51.1 °F 81% 29.79 in 10.0 mi NW 4.6 mph - N/A   Scattered Clouds
4:56 AM 55.9 °F 48.9 °F 77% 29.80 in 10.0 mi NNW 5.8 mph - N/A   Clear
5:56 AM 55.9 °F 48.9 °F 77% 29.82 in 10.0 mi NNW 6.9 mph - N/A   Clear
6:56 AM 59.0 °F 50.0 °F 72% 29.84 in 10.0 mi NW 9.2 mph - N/A   Clear
7:56 AM 62.1 °F 52.0 °F 70% 29.85 in 10.0 mi NW 8.1 mph - N/A   Clear
8:56 AM 64.0 °F 52.0 °F 65% 29.86 in 10.0 mi NW 16.1 mph 21.9 mph N/A   Clear
9:56 AM 66.0 °F 52.0 °F 60% 29.85 in 10.0 mi NW 15.0 mph - N/A   Clear
10:56 AM 68.0 °F 52.0 °F 56% 29.85 in 10.0 mi NNW 11.5 mph 23.0 mph N/A   Clear
11:56 AM 69.1 °F 52.0 °F 54% 29.86 in 10.0 mi NW 13.8 mph 25.3 mph N/A   Mostly Cloudy
12:56 PM 73.0 °F 53.1 °F 49% 29.85 in 10.0 mi NW 15.0 mph 23.0 mph N/A   Partly Cloudy
1:56 PM 73.0 °F 52.0 °F 48% 29.85 in 10.0 mi NW 9.2 mph 25.3 mph N/A   Clear
2:56 PM 73.9 °F 52.0 °F 46% 29.85 in 10.0 mi WNW 16.1 mph 23.0 mph N/A   Scattered Clouds
3:56 PM 75.0 °F 51.1 °F 43% 29.85 in 10.0 mi NW 16.1 mph - N/A   Clear
4:56 PM 73.9 °F 51.1 °F 45% 29.85 in 10.0 mi NW 13.8 mph 21.9 mph 0.00 in   Clear
5:56 PM 75.0 °F 51.1 °F 43% 29.86 in 10.0 mi NW 10.4 mph - N/A   Clear
6:56 PM 73.9 °F 51.1 °F 45% 29.88 in 10.0 mi WNW 6.9 mph - 0.00 in   Clear
7:56 PM 71.1 °F 52.0 °F 51% 29.89 in 10.0 mi West 3.5 mph - N/A   Clear
8:56 PM 64.0 °F 52.0 °F 65% 29.91 in 10.0 mi Calm Calm - N/A   Clear
9:56 PM 63.0 °F 54.0 °F 72% 29.92 in 10.0 mi West 3.5 mph - N/A   Clear
10:56 PM 61.0 °F 55.0 °F 81% 29.93 in 10.0 mi Calm Calm - 0.00 in   Clear
11:56 PM 61.0 °F 55.0 °F 81% 29.94 in 10.0 mi NW 6.9 mph - N/A   Clear